AirNav   ProFlight Series 2 Aviation Headset
 
 1452 users online  

GA39 Hodges Airpark
Savannah, Georgia, USA

GOING TO SAVANNAH?


FAA INFORMATION EFFECTIVE 18 JUNE 2020

Location

FAA Identifier: GA39
Lat/Long: 31-59-03.7490N 081-14-46.4000W
31-59.062483N 081-14.773333W
31.9843747,-81.2462222
(estimated)
Elevation: 10 ft. / 3 m (estimated)
Variation: 04W (1985)
From city: 6 miles SW of SAVANNAH, GA
Time zone: UTC -4 (UTC -5 during Standard Time)
Zip code: 31419

Airport Operations

Airport use: Private use. Permission required prior to landing
Activation date: 01/1976
Control tower: no
ARTCC: JACKSONVILLE CENTER
FSS: MACON FLIGHT SERVICE STATION
Attendance: CONTINUOUS
Wind indicator: yes
Segmented circle: no

Airport Communications

WX ASOS at SAV (9 nm N): PHONE 912-966-0364

Nearby radio navigation aids

VOR radial/distance  VOR name  Freq  Var
SVNr255/5.6HUNTER VOR/DME111.6002W
SAVr200/10.0SAVANNAH VORTAC115.9506W

 
NDB name  Hdg/Dist  Freq  Var  ID
WASSA269/13.333504WSV ... ...-
MC INTOSH060/16.326304WMOQ -- --- --.-
CLAXTON118/34.339507WCWV -.-. .-- ...-

Airport Services

Runway Information

Runway 12/30

Dimensions: 2640 x 60 ft. / 805 x 18 m
Surface: turf
RUNWAY 12  RUNWAY 30
Traffic pattern: rightright
Obstructions: 50 ft. trees50 ft. rr

Airport Ownership and Management from official FAA records

Ownership: Privately-owned
Owner: ROBERT J. HODGES
500 HINESVILLE ROAD
SAVANNAH, GA 31405
Phone 912-925-3664
Manager: ROBERT J. HODGES
500 HINESVILLE ROAD
SAVANNAH, GA 31405
Phone 912-925-3664
912-441-3790 CELL

Airport Operational Statistics

Aircraft based on the field: 21
Single engine airplanes: 18
Multi engine airplanes: 1
Ultralights: 2
    

Additional Remarks

FOR CD CTC SAVANNAH APCH AT 912-964-3205, WHEN APCH CLSD CTC JACKSONVILLE ARTCC AT 904-845-1592.

Instrument Procedures

There are no published instrument procedures at GA39.

Some nearby airports with instrument procedures:

KSVN - Hunter Army Airfield (5 nm E)
KSAV - Savannah/Hilton Head International Airport (9 nm N)
KLHW - Wright Army Airfield (Fort Stewart)/Midcoast Regional Airport (17 nm W)
KHXD - Hilton Head Airport (31 nm NE)
KCWV - Claxton-Evans County Airport (34 nm W)
 
Loc | Ops | Rwys | IFR | FBO | Links
Com | Nav | Svcs | Stats | Notes
Area around GA39 (Hodges Airpark)
 
Road maps at: MapQuest Bing Google
 
Aerial photo
WARNING: Photo may not be current or correct
Aerial photo of GA39 (Hodges Airpark)
Do you have a better or more recent aerial photo of Hodges Airpark that you would like to share? If so, please send us your photo.

 
Sectional chart

 
Airport distance calculator
Flying to Hodges Airpark? Find the distance to fly.

From to GA39

Sunrise and sunset
Times for 13-Jul-2020
 Local
(UTC-4)
 Zulu
(UTC)
Morning civil twilight06:0210:02
Sunrise06:3010:30
Sunset20:3200:32
Evening civil twilight20:5900:59

Current date and time
Zulu (UTC)  13-Jul-2020 17:55:45
Local (UTC-4)  13-Jul-2020 13:55:45
 
METAR
KSVN 
5nm E 
131656Z 20010KT 10SM FEW160 33/22 A2985 RMK AO2A SLP111 T03250219 $
KSAV 
8nm N 
131653Z 27011G19KT 10SM FEW040 FEW210 33/23 A2987 RMK AO2 SLP114 T03280228
KLHW 
18nm SW 
131656Z 27010G16KT 10SM FEW060 FEW170 32/22 A2986 RMK AO2A SLP114 T03160217 $
TAF
KSVN 
5nm E 
131200Z 1312/1418 25006KT 9999 SCT180 QNH2980INS BECMG 1317/1318 21006KT 9000 -SHRA SCT045 QNH2985INS TEMPO 1320/1324 VRB15G25KT 9000 -TSRA SCT045CB BECMG 1323/1324 20006KT 9999 NSW SCT030 QNH2987INS BECMG 1407/1408 VRB06KT 4800 BR SCT020 BKN030 QNH2992INS BECMG 1413/1414 VRB06KT 4800 BR SCT010 QNH2992INS TX33/1318Z TN25/1411Z
KSAV 
8nm N 
131121Z 1312/1412 25005KT P6SM FEW060 BKN200 FM131800 25009KT P6SM SCT050 FM132300 18009KT P6SM SCT250 FM140300 22004KT P6SM SCT250
NOTAMs
Click for the latest NOTAMs
NOTAMs are issued by the DoD/FAA and will open in a separate window not controlled by AirNav.

 

 
 

Would you like to see your business listed on this page?

 If your business provides an interesting product or service to pilots, flight crews, aircraft, or users of the Hodges Airpark, you should consider listing it here.  To start the listing process, click on the button below
 
Add a business
 

Other Pages about Hodges Airpark

Update a link
 
Copyright © AirNav, LLC. All rights reserved. Privacy Policy  Contact